This demonstration page uses our WeatherBlox Daily Observations layout. Learn more.

Left ArrowRight Arrow

30.21309, -93.2044

Hourly Observations for January 7, 2022

Temp ( °F °C ) Dew Point ( °F °C ) Humidity (%) Winds ( mph kmh ) Pressure ( in mb ) Visibility ( mi km ) Precip ( " mm )
12:15 am 00:15 Clear 39 3.9 33 0.5 79 79 NE 12 19 30.17 1022 10 16 0.00 0.00
12:35 am 00:35 Clear 38 3.6 33 0.3 79 79 NE 10 17 30.17 1022 10 16 0.00 0.00
12:55 am 00:55 Clear 38 3.5 33 0.4 80 80 NNE 10 17 30.17 1022 10 16 0.00 0.00
1:15 am 01:15 Clear 38 3.4 33 0.4 81 81 NE 9 15 30.17 1022 10 16 0.00 0.00
1:35 am 01:35 Clear 38 3.3 33 0.3 81 81 NNE 9 15 30.18 1022 10 16 0.00 0.00
1:55 am 01:55 Clear 38 3.1 33 0.3 82 82 NNE 8 13 30.18 1022 10 16 0.00 0.00
2:15 am 02:15 Clear 37 3 32 0.2 82 82 NNE 9 15 30.18 1022 10 16 0.00 0.00
2:35 am 02:35 Clear 37 2.9 32 0.1 82 82 NNE 8 13 30.19 1022 10 16 0.00 0.00
2:55 am 02:55 Clear 37 2.7 32 0.1 83 83 NNE 8 13 30.19 1022 10 16 0.00 0.00
3:15 am 03:15 Clear 37 2.7 32 0 83 83 NNE 9 15 30.19 1022 10 16 0.00 0.00
3:35 am 03:35 Clear 37 2.6 32 -0.1 83 83 NNE 9 15 30.20 1023 10 16 0.00 0.00
3:55 am 03:55 Clear 36 2.4 32 0 84 84 NNE 9 15 30.20 1023 10 16 0.00 0.00
4:15 am 04:15 Clear 36 2.3 32 -0.2 84 84 NNE 9 15 30.20 1023 10 16 0.00 0.00
4:35 am 04:35 Clear 36 2.1 32 -0.2 85 85 NNE 9 15 30.21 1023 10 16 0.00 0.00
4:55 am 04:55 Clear 36 2 31 -0.3 85 85 NNE 8 13 30.21 1023 10 16 0.00 0.00
5:15 am 05:15 Clear 35 1.9 31 -0.4 85 85 NNE 7 11 30.22 1023 10 16 0.00 0.00
5:35 am 05:35 Clear 35 1.9 31 -0.4 85 85 NE 8 13 30.22 1023 10 16 0.00 0.00
6:00 am 06:00 Mostly Clear 36 2 30 -1 81 81 NE 6 9 30.22 1023 10 16 0.00 0.00
6:50 am 06:50 Mostly Clear 36 2 30 -1 81 81 NE 7 11 30.23 1024 10 16 0.00 0.00
7:53 am 07:53 Cloudy 36 2 30 -1 81 81 ENE 10 17 30.26 1025 10 16 0.00 0.00
8:49 am 08:49 Cloudy 37 3 32 0 81 81 ENE 14 22 30.29 1026 10 16 0.00 0.00
9:50 am 09:50 Cloudy 39 4 32 0 75 75 ENE 9 15 30.31 1026 10 16 0.00 0.00
10:53 am 10:53 Mostly Cloudy 43 6 34 1 71 71 ENE 7 11 30.30 1026 10 16 0.00 0.00
11:53 am 11:53 Mostly Cloudy 45 7 34 1 66 66 ENE 8 13 30.28 1025 10 16 0.00 0.00
12:55 pm 12:55 Mostly Sunny 46 8 36 2 66 66 ENE 8 13 30.24 1024 10 16 0.00 0.00
2:50 pm 14:50 Mostly Sunny 48 9 36 2 62 62 ENE 6 9 30.22 1023 10 16 0.00 0.00
3:45 pm 15:45 Mostly Sunny 50 10 37 3 62 62 ENE 6 9 30.21 1023 10 16 0.00 0.00
4:50 pm 16:50 Mostly Sunny 48 9 37 3 66 66 ENE 6 9 30.22 1023 10 16 0.00 0.00
5:50 pm 17:50 Mostly Clear 46 8 37 3 71 71 ENE 6 9 30.21 1023 10 16 0.00 0.00
6:55 pm 18:55 Mostly Clear 46 8 37 3 71 71 ENE 6 9 30.21 1023 10 16 0.00 0.00
7:55 pm 19:55 Mostly Clear 45 7 37 3 76 76 ENE 6 9 30.21 1023 10 16 0.00 0.00
8:53 pm 20:53 Mostly Clear 45 7 37 3 76 76 E 7 11 30.21 1023 10 16 0.00 0.00
9:55 pm 21:55 Mostly Cloudy 46 8 37 3 71 71 E 7 11 30.21 1023 10 16 0.00 0.00
10:15 pm 22:15 Cloudy 47 8.3 39 3.9 74 74 NE 7 11 30.20 1023 10 16 0.00 0.00
10:35 pm 22:35 Cloudy 47 8.3 39 3.7 73 73 ENE 7 11 30.20 1023 10 16 0.00 0.00
10:55 pm 22:55 Cloudy 47 8.5 39 4.1 74 74 E 6 9 30.20 1023 10 16 0.00 0.00
11:15 pm 23:15 Cloudy 47 8.5 40 4.3 75 75 E 5 7 30.20 1023 10 16 0.00 0.00
11:35 pm 23:35 Cloudy 47 8.6 40 4.4 75 75 E 7 11 30.19 1022 10 16 0.00 0.00
11:55 pm 23:55 Cloudy 47 8.5 40 4.2 75 75 ENE 7 11 30.18 1022 10 16 0.00 0.00

Powered by AerisWeather